CEB622 RPSP-RPLL

Flight info

Callsign CEB622
Flight time N/A
Altitude 36000
Route LAMOK2P LAMOK B473 LAIYA LAIYA7R
Aircraft A339/H-SADE1E2E3GHIJ1J3J5M1P2RWXY/LB2D1

Departure

Time 2026-04-28 14:06
Airport Bohol-Panglao International Airport (RPSP)

Arrival

Time N/A
Airport Ninoy Aquino International Airport (RPLL)
Time Latitude Longitude Altitude Speed Heading
2026-04-28 13:18 9.56860 123.77128 56 ft 0 kts 121°
2026-04-28 13:54 9.56912 123.77065 56 ft 0 kts 121°
2026-04-28 13:54 9.56966 123.77088 56 ft 0 kts 214°
2026-04-28 14:00 9.56946 123.77076 56 ft 7 kts 211°
2026-04-28 14:01 9.56885 123.77039 56 ft 12 kts 210°
2026-04-28 14:01 9.56840 123.76994 56 ft 7 kts 261°
2026-04-28 14:01 9.56864 123.76927 56 ft 12 kts 302°
2026-04-28 14:01 9.56915 123.76845 56 ft 12 kts 300°
2026-04-28 14:02 9.56907 123.76780 56 ft 9 kts 222°
2026-04-28 14:02 9.56845 123.76740 56 ft 11 kts 210°
2026-04-28 14:02 9.56774 123.76697 56 ft 12 kts 211°
2026-04-28 14:02 9.56694 123.76648 56 ft 13 kts 211°
2026-04-28 14:03 9.56606 123.76595 56 ft 14 kts 210°
2026-04-28 14:03 9.56535 123.76556 56 ft 6 kts 199°
2026-04-28 14:03 9.56480 123.76550 56 ft 8 kts 182°
2026-04-28 14:03 9.56433 123.76537 56 ft 5 kts 218°
2026-04-28 14:04 9.56426 123.76516 56 ft 2 kts 288°
2026-04-28 14:04 9.56451 123.76509 56 ft 5 kts 12°
2026-04-28 14:04 9.56482 123.76524 56 ft 0 kts 29°
2026-04-28 14:05 9.56483 123.76524 56 ft 2 kts 29°
2026-04-28 14:05 9.56672 123.76636 56 ft 73 kts 31°
2026-04-28 14:05 9.57352 123.77041 58 ft 149 kts 31°
2026-04-28 14:05 9.58324 123.77608 637 ft 168 kts 33°
2026-04-28 14:06 9.59342 123.78172 1546 ft 172 kts 20°
2026-04-28 14:06 9.60549 123.78174 2328 ft 180 kts 356°
2026-04-28 14:06 9.61859 123.77943 2778 ft 197 kts 354°
2026-04-28 14:06 9.63286 123.77676 3195 ft 216 kts 353°
2026-04-28 14:07 9.64869 123.77389 3660 ft 234 kts 353°
2026-04-28 14:07 9.66533 123.77097 4239 ft 247 kts 353°
2026-04-28 14:07 9.68239 123.76802 4996 ft 250 kts 353°
2026-04-28 14:07 9.69956 123.76511 5737 ft 254 kts 353°
2026-04-28 14:08 9.71727 123.76212 6450 ft 258 kts 353°
2026-04-28 14:08 9.73521 123.75912 7158 ft 262 kts 353°
2026-04-28 14:08 9.75325 123.75610 7861 ft 265 kts 353°
2026-04-28 14:08 9.77173 123.75306 8579 ft 267 kts 355°
2026-04-28 14:09 9.79019 123.75120 9260 ft 269 kts 360°
2026-04-28 14:09 9.80967 123.75067 9688 ft 283 kts
2026-04-28 14:09 9.82978 123.75047 10154 ft 295 kts
2026-04-28 14:09 9.85108 123.75027 10609 ft 308 kts
2026-04-28 14:10 9.87322 123.75002 10913 ft 326 kts
2026-04-28 14:10 9.89653 123.74692 11224 ft 346 kts 348°
2026-04-28 14:10 9.91959 123.73825 11792 ft 356 kts 335°
2026-04-28 14:10 9.94142 123.72602 12499 ft 359 kts 332°
2026-04-28 14:11 9.96305 123.71328 13198 ft 361 kts 331°
2026-04-28 14:11 9.98487 123.70034 13864 ft 364 kts 331°
2026-04-28 14:11 10.00682 123.68735 14513 ft 367 kts 332°
2026-04-28 14:11 10.02904 123.67429 15157 ft 370 kts 332°
2026-04-28 14:12 10.05171 123.66100 15794 ft 373 kts 332°
2026-04-28 14:12 10.07446 123.64770 16407 ft 376 kts 332°
2026-04-28 14:12 10.09724 123.63438 17009 ft 379 kts 332°
2026-04-28 14:12 10.12056 123.62076 17616 ft 382 kts 332°
2026-04-28 14:13 10.14375 123.60723 18187 ft 386 kts 332°
2026-04-28 14:13 10.16723 123.59352 18735 ft 390 kts 332°
2026-04-28 14:13 10.19105 123.57961 19273 ft 394 kts 332°
2026-04-28 14:13 10.21509 123.56554 19802 ft 398 kts 332°
2026-04-28 14:14 10.23951 123.55126 20318 ft 402 kts 332°
2026-04-28 14:14 10.26384 123.53702 20817 ft 406 kts 332°
2026-04-28 14:14 10.28834 123.52272 21305 ft 409 kts 332°
2026-04-28 14:14 10.31331 123.50816 21790 ft 413 kts 332°
2026-04-28 14:15 10.33866 123.49340 22273 ft 416 kts 332°
2026-04-28 14:15 10.36392 123.47870 22755 ft 419 kts 332°
2026-04-28 14:15 10.38935 123.46386 23247 ft 422 kts 332°
2026-04-28 14:15 10.41497 123.44891 23742 ft 424 kts 332°
2026-04-28 14:16 10.43746 123.43578 24167 ft 426 kts 332°
2026-04-28 14:16 10.45837 123.42356 24552 ft 428 kts 332°
2026-04-28 14:17 10.48421 123.40846 25012 ft 431 kts 332°
2026-04-28 14:17 10.51063 123.39301 25480 ft 434 kts 331°
2026-04-28 14:17 10.53696 123.37762 25928 ft 436 kts 331°
2026-04-28 14:17 10.56356 123.36205 26370 ft 439 kts 331°
2026-04-28 14:18 10.58997 123.34660 26806 ft 441 kts 331°
2026-04-28 14:18 10.61705 123.33077 27237 ft 443 kts 331°
2026-04-28 14:18 10.64382 123.31512 27659 ft 446 kts 331°
2026-04-28 14:18 10.67114 123.29916 28081 ft 448 kts 331°
2026-04-28 14:19 10.69823 123.28333 28502 ft 450 kts 331°
2026-04-28 14:19 10.72573 123.26726 28921 ft 452 kts 331°
2026-04-28 14:19 10.75293 123.25136 29311 ft 454 kts 331°
2026-04-28 14:19 10.78056 123.23521 29674 ft 457 kts 330°
2026-04-28 14:20 10.80845 123.21887 30032 ft 460 kts 330°
2026-04-28 14:20 10.83634 123.20252 30380 ft 463 kts 330°
2026-04-28 14:20 10.86430 123.18612 30719 ft 466 kts 330°
2026-04-28 14:20 10.89258 123.16952 31059 ft 469 kts 330°
2026-04-28 14:21 10.92117 123.15271 31383 ft 472 kts 330°
2026-04-28 14:21 10.94993 123.13582 31700 ft 475 kts 330°
2026-04-28 14:21 10.97861 123.11900 32064 ft 477 kts 330°
2026-04-28 14:21 11.00729 123.10220 32536 ft 476 kts 329°
2026-04-28 14:22 11.03614 123.08530 33107 ft 473 kts 329°
2026-04-28 14:22 11.06473 123.06853 33687 ft 471 kts 329°
2026-04-28 14:22 11.09347 123.05164 34267 ft 470 kts 329°
2026-04-28 14:22 11.12181 123.03500 34761 ft 469 kts 329°
2026-04-28 14:23 11.15000 123.01842 35157 ft 470 kts 329°
2026-04-28 14:23 11.17893 123.00140 35528 ft 472 kts 329°
2026-04-28 14:23 11.20750 122.98460 35845 ft 474 kts 329°
2026-04-28 14:23 11.23623 122.96768 35888 ft 475 kts 329°
2026-04-28 14:24 11.29384 122.93375 35890 ft 475 kts 329°
2026-04-28 14:24 11.35142 122.89984 35893 ft 475 kts 329°
2026-04-28 14:25 11.40887 122.86607 35895 ft 475 kts 329°
2026-04-28 14:25 11.46672 122.83199 35897 ft 474 kts 329°
2026-04-28 14:26 11.52380 122.79831 35897 ft 473 kts 329°
2026-04-28 14:26 11.58103 122.76455 35903 ft 473 kts 328°
2026-04-28 14:27 11.63721 122.72832 35906 ft 472 kts 326°
2026-04-28 14:27 11.69197 122.69145 35904 ft 473 kts 326°
2026-04-28 14:28 11.74695 122.65441 35901 ft 473 kts 325°
2026-04-28 14:28 11.80215 122.61719 35901 ft 473 kts 326°
2026-04-28 14:29 11.85752 122.57987 35902 ft 472 kts 326°
2026-04-28 14:29 11.91262 122.54270 35904 ft 472 kts 326°
2026-04-28 14:30 11.96764 122.50558 35901 ft 471 kts 326°
2026-04-28 14:30 12.02280 122.46835 35903 ft 471 kts 325°
2026-04-28 14:31 12.07774 122.43126 35900 ft 472 kts 325°
2026-04-28 14:31 12.13290 122.39396 35901 ft 473 kts 325°
2026-04-28 14:32 12.18813 122.35661 35902 ft 473 kts 325°
2026-04-28 14:32 12.24347 122.31918 35902 ft 472 kts 325°
2026-04-28 14:33 12.29818 122.28211 35897 ft 471 kts 325°
2026-04-28 14:33 12.35325 122.24480 35895 ft 471 kts 325°
2026-04-28 14:34 12.43516 122.18846 35891 ft 471 kts 324°
2026-04-28 14:34 12.46233 122.16958 35784 ft 469 kts 324°
2026-04-28 14:35 12.48930 122.15083 34685 ft 470 kts 324°
2026-04-28 14:35 12.51638 122.13197 32711 ft 479 kts 324°
2026-04-28 14:35 12.54419 122.11259 31210 ft 490 kts 324°
2026-04-28 14:35 12.57268 122.09276 30559 ft 487 kts 325°
2026-04-28 14:36 12.58248 122.08594 30463 ft 483 kts 325°
2026-04-28 14:36 12.60846 122.06800 30230 ft 473 kts 326°
2026-04-28 14:36 12.63320 122.05101 30005 ft 464 kts 326°